Theta_e
302 299 300 303 303 304 304 304 303 303 302 302 301 302 304 304 302 301 303 305 305 307 309 309 308 307 305 305 304 304 304 303 303 303 303 303 302 303 303 303 303 303 303 302
299 298 299 301 301 302 302 302 301 302 302 301 301 301 303 304 303 303 304 304 304 306 307 306 307 306 305 304 304 304 304 303 303 303 303 303 302 302 303 303 303 302 302 302
298 300 300 301 301 301 301 301 302 303 303 301 300 302 303 304 303 305 305 305 305 306 306 306 305 305 304 304 304 304 304 303 303 303 303 302 301 302 303 303 303 302 302 301
298 299 300 300 301 300 301 301 303 303 303 301 303 302 303 306 306 305 306 305 305 306 306 307 307 305 304 304 304 304 304 303 303 303 303 303 302 302 303 303 302 302 301 301
299 298 299 300 300 299 300 301 302 302 302 302 302 302 301 303 307 307 305 306 308 307 306 307 307 307 305 304 304 304 304 303 303 302 303 303 302 301 302 303 302 302 301 301
298 298 298 299 297 299 299 300 301 301 300 301 300 301 300 305 307 308 306 307 307 307 307 306 307 307 306 305 304 304 303 303 303 302 302 303 302 301 302 302 302 302 301 301
299 298 297 297 297 298 300 299 303 303 299 303 301 301 303 304 305 306 307 307 308 308 307 307 307 306 306 305 304 304 303 303 303 302 302 302 302 301 301 302 302 302 301 301
298 299 296 296 297 298 298 299 303 302 307 308 301 304 306 305 304 305 307 307 307 307 306 306 307 307 306 306 305 304 303 303 303 302 302 302 302 301 301 301 302 301 301 301
297 301 296 296 296 297 298 300 301 302 296 301 303 302 303 305 302 303 302 304 305 306 306 306 305 306 307 306 305 304 304 303 303 303 302 302 302 301 301 301 301 301 300 300
300 301 296 296 296 296 297 298 300 299 298 301 304 304 305 307 306 302 302 301 304 305 305 305 305 305 306 307 306 305 304 304 304 303 302 302 302 301 301 300 301 300 300 300
295 300 297 295 295 297 296 298 297 298 302 304 306 306 302 304 305 303 301 303 305 305 305 305 305 305 306 306 306 306 305 304 304 303 303 302 302 301 300 300 300 300 299 300
301 301 296 295 295 295 296 298 299 300 301 302 306 306 305 303 304 302 304 305 305 305 306 305 305 305 304 305 305 305 305 305 305 304 303 303 302 301 300 300 300 299 299 300
301 302 297 297 295 293 293 296 298 299 300 300 303 305 302 304 305 305 305 307 307 306 306 305 304 304 305 305 305 305 305 305 305 304 303 302 301 301 300 300 299 299 299 299
304 303 305 307 300 294 292 292 297 297 297 303 304 305 306 304 304 303 305 307 307 308 307 306 305 305 305 305 305 305 305 305 305 304 303 302 302 301 300 300 299 298 299 299
303 304 305 306 301 296 297 292 296 299 301 301 304 302 302 302 302 302 304 305 307 307 307 307 307 307 306 306 306 305 305 305 305 304 303 302 302 301 300 299 299 298 299 298
299 306 302 306 305 304 304 303 295 298 299 300 301 300 302 301 302 301 303 305 305 306 307 308 308 308 308 307 307 306 306 306 305 304 304 303 301 300 299 299 298 298 299 298
299 302 301 307 306 306 304 304 304 301 297 299 300 301 302 301 301 302 304 304 305 306 307 307 307 307 308 308 308 307 307 307 305 304 304 303 301 300 299 299 298 299 299 298
300 300 303 307 303 307 305 303 303 304 303 300 301 303 304 303 304 304 303 303 304 304 305 305 306 306 307 307 307 307 307 306 305 304 303 303 301 300 299 298 298 299 298 298
301 302 305 306 305 304 304 303 299 302 302 293 294 295 295 295 299 300 298 298 297 299 300 301 302 304 304 305 306 307 306 306 305 305 304 302 301 300 299 298 299 299 298 298
302 302 304 305 307 306 304 299 293 297 304 290 290 290 290 292 299 296 292 292 295 298 298 300 302 302 303 304 303 304 306 305 306 305 304 302 301 300 299 299 299 299 298 297
298 301 302 303 304 303 292 291 291 302 296 288 288 287 288 289 288 288 289 291 292 293 295 298 300 300 300 301 303 303 304 305 306 305 303 302 301 300 300 299 299 298 298 297
296 299 301 301 301 301 291 291 296 290 288 286 285 285 285 285 286 286 288 289 290 292 294 295 297 298 297 299 300 301 301 303 303 303 302 301 300 299 299 299 298 298 297 297
296 291 294 292 293 291 289 289 287 287 287 285 284 284 283 283 284 284 286 289 289 290 291 292 294 296 296 296 296 296 299 300 300 300 300 300 299 299 299 298 298 298 298 297
292 291 290 290 292 290 287 285 284 284 284 283 280 280 281 280 281 282 282 284 287 288 289 290 293 294 295 294 295 294 294 295 297 299 299 299 299 299 298 298 298 298 298 298
289 288 289 291 290 285 283 282 280 280 280 281 281 280 278 278 279 279 279 279 281 285 287 290 291 291 292 293 294 295 296 295 295 297 298 298 299 299 298 298 298 298 298 298
285 284 288 287 281 284 282 278 277 277 277 276 276 280 280 276 276 277 278 278 278 280 284 286 288 290 291 292 294 294 295 295 296 295 295 297 298 298 298 297 297 297 297 297
Wind_Speed
3 3 9 14 9 2 3 3 4 3 3 3 9 18 19 20 17 21 31 37 34 38 38 39 38 38 37 40 39 37 35 33 31 30 28 23 16 12 9 7 8 9 10 11
2 9 8 2 5 6 4 4 6 4 2 3 6 17 18 17 14 25 31 32 43 44 39 36 40 39 42 41 42 39 37 36 34 31 28 23 16 14 11 8 9 10 11 13
8 4 3 5 4 5 4 6 4 5 3 4 6 11 8 8 13 23 30 35 35 42 44 41 39 42 44 45 45 42 39 36 35 31 30 27 20 17 13 9 9 11 12 12
7 3 5 4 5 7 5 4 2 2 1 4 1 7 7 7 11 7 16 24 33 37 37 40 40 43 46 45 45 42 37 36 34 33 33 29 22 17 13 12 9 12 13 13
7 6 5 4 5 7 5 2 3 2 2 4 2 3 8 5 8 11 8 20 25 28 31 37 40 41 43 43 44 42 37 36 34 35 34 30 26 21 17 15 11 13 13 14
3 1 3 4 3 2 5 5 6 5 2 3 8 8 5 5 6 5 3 7 11 14 21 28 31 35 41 43 43 40 38 37 35 35 34 33 29 24 21 17 14 14 15 15
0 4 2 3 4 4 2 6 1 3 1 7 3 4 5 10 9 6 3 10 9 11 15 20 27 35 39 43 44 41 38 37 36 36 35 34 30 26 24 21 18 15 16 16
7 5 9 6 6 6 7 6 5 8 4 3 2 8 7 10 9 17 18 13 10 14 15 19 25 29 35 39 40 40 39 38 35 35 37 35 31 29 26 23 20 17 17 17
5 5 2 2 1 3 6 6 3 4 1 3 5 7 10 10 10 5 8 12 15 17 17 18 21 25 29 35 37 38 37 35 34 36 36 35 32 31 29 25 22 19 18 17
7 1 1 2 2 2 4 1 2 2 2 5 5 6 8 5 6 6 6 11 17 15 16 18 22 24 27 28 30 32 31 30 31 33 34 33 32 31 29 27 24 20 19 18
4 4 0 2 8 11 4 4 2 2 4 5 2 6 7 8 7 9 10 17 16 16 15 17 20 23 27 29 29 28 28 28 28 29 30 32 33 32 31 28 25 22 20 18
5 4 5 9 1 1 2 6 7 4 6 4 3 11 2 5 2 6 3 6 14 18 19 19 20 22 28 30 30 29 28 28 26 27 29 32 32 33 31 29 26 23 20 19
6 3 1 5 4 4 5 6 4 4 2 8 6 7 2 2 3 2 3 1 1 10 16 19 21 23 26 30 31 29 28 27 25 28 30 31 33 33 32 29 26 23 22 20
11 3 6 9 5 5 4 5 13 6 3 9 17 8 3 2 5 5 7 2 6 9 15 18 22 26 27 29 31 30 27 24 24 28 30 32 32 32 30 28 26 25 22 20
8 10 14 23 8 5 5 5 10 17 25 9 24 14 9 8 8 7 11 15 11 14 15 20 25 28 32 33 35 37 32 25 25 28 31 33 31 31 29 29 28 26 23 20
3 7 3 14 18 8 12 11 10 20 20 18 22 16 1 6 13 10 18 19 18 21 24 28 31 31 34 37 38 41 38 34 30 30 32 32 31 32 31 30 29 26 23 21
11 8 7 5 7 10 5 23 18 12 11 16 16 19 5 10 14 17 25 24 32 39 40 41 38 37 39 39 38 38 38 37 34 33 33 32 33 33 32 30 30 27 23 21
3 3 5 7 4 12 9 8 19 24 25 19 18 20 19 15 26 28 16 23 33 35 38 40 42 41 40 39 42 41 42 42 36 36 36 34 35 33 32 32 31 26 24 22
15 8 5 6 13 13 6 3 5 8 5 12 9 11 9 20 20 8 15 23 26 23 24 29 34 40 41 39 38 41 44 42 38 38 38 36 35 34 33 34 30 27 24 23
15 16 12 7 5 10 4 5 15 4 7 10 12 12 15 19 5 3 36 31 29 26 24 20 19 22 25 29 33 37 40 43 40 39 39 35 35 34 34 31 29 27 24 21
2 5 14 14 13 6 9 14 7 5 3 8 11 13 15 8 7 22 29 29 27 26 27 24 20 21 21 24 24 27 34 42 39 37 34 35 35 34 32 30 28 26 24 23
7 5 5 9 12 15 12 4 3 2 4 5 10 12 13 13 16 24 29 33 34 33 31 28 26 21 20 17 19 22 30 33 35 35 34 34 33 33 32 30 28 28 26 25
5 1 1 2 3 4 9 14 11 6 3 2 6 14 12 16 18 22 30 32 33 34 34 31 27 25 20 18 15 14 21 29 30 30 31 31 31 32 31 31 31 30 28 26
1 2 1 4 4 5 13 11 7 4 4 6 7 10 13 18 19 18 21 27 30 33 34 37 34 29 26 20 16 15 14 15 18 25 30 31 31 32 31 31 31 30 29 27
4 2 2 3 3 8 3 1 2 3 6 8 11 14 14 17 21 21 22 23 28 30 33 33 34 32 30 25 17 16 14 14 16 19 24 28 31 33 33 33 31 31 30 28
3 2 2 2 5 5 6 2 6 9 11 12 15 20 20 18 18 21 26 28 29 31 30 32 30 30 31 30 25 18 16 17 16 19 22 26 30 32 33 33 33 32 31 31
Wind_Direction
209 149 213 205 199 178 147 222 262 277 203 211 229 257 261 272 262 255 249 247 243 238 238 235 229 224 220 217 217 219 220 217 213 209 210 215 222 228 241 268 290 283 287 294
49 237 237 244 207 229 230 250 260 259 146 205 292 273 274 265 250 238 244 237 241 241 237 232 226 224 220 218 219 220 222 220 217 214 216 221 222 229 236 262 288 281 284 294
178 222 146 167 180 188 228 207 219 236 312 227 307 274 257 259 247 255 245 245 245 243 238 229 222 220 219 219 220 220 221 220 219 216 216 220 220 228 232 252 283 290 288 297
230 226 176 173 212 166 247 206 162 170 121 248 170 286 281 276 277 254 254 242 243 243 239 235 224 219 218 220 222 223 223 221 219 219 220 225 229 236 237 251 277 294 288 290
236 174 176 184 208 167 227 118 141 109 183 355 232 280 272 272 277 263 271 256 246 243 240 234 226 223 221 219 222 224 225 222 222 222 223 227 229 233 238 250 273 292 286 288
253 329 200 200 79 36 132 70 43 47 68 296 199 190 232 228 238 286 295 311 246 241 236 232 229 223 221 220 220 221 222 223 224 224 225 227 230 233 239 249 267 288 286 284
192 215 188 156 95 22 97 101 327 341 347 231 151 183 262 267 248 232 255 279 254 230 222 216 217 218 219 218 217 218 220 223 224 226 227 229 231 235 239 246 260 279 282 280
165 283 169 180 200 177 184 174 170 206 205 252 37 234 253 243 283 260 267 252 219 204 205 206 210 211 214 216 217 216 219 222 225 227 228 229 231 235 239 244 256 272 278 276
141 261 145 125 136 146 193 206 198 103 67 35 224 280 294 261 255 258 231 198 208 205 203 203 208 209 210 211 214 216 219 224 227 228 228 229 232 235 239 245 253 266 273 273
201 99 238 134 143 231 178 224 111 359 186 246 272 266 233 273 246 224 233 226 222 221 215 208 209 207 204 206 208 213 218 222 225 226 228 231 235 239 240 244 252 262 268 268
139 126 166 84 205 182 156 204 201 138 168 183 273 258 220 236 209 212 232 233 226 221 222 216 210 206 201 200 202 206 213 220 226 230 232 235 238 238 240 244 250 259 262 263
217 150 172 205 261 357 243 189 165 142 224 230 179 256 275 264 178 207 257 256 244 235 231 224 214 211 209 207 208 211 216 221 229 235 237 239 239 239 241 243 248 255 257 258
191 203 89 341 353 354 207 208 206 116 90 216 150 254 301 185 86 72 147 120 218 226 226 226 221 218 214 213 213 216 222 226 233 238 240 240 239 238 239 242 246 252 250 252
125 198 204 219 192 135 197 211 197 162 159 221 230 218 336 282 218 200 199 140 241 223 223 224 228 230 227 226 224 224 229 233 241 242 242 240 238 238 240 242 244 245 244 247
164 209 206 230 188 174 197 190 203 206 227 196 249 225 226 243 235 246 280 293 264 244 238 235 234 234 234 235 232 233 237 243 249 247 244 242 239 238 237 238 239 237 240 243
198 231 162 252 231 215 242 253 212 224 243 252 262 269 16 282 291 313 299 290 280 272 256 244 243 246 249 244 239 237 241 250 249 247 246 241 236 234 234 234 233 231 235 238
171 170 168 236 195 235 219 231 230 226 210 223 243 251 216 262 264 258 262 271 273 276 279 278 266 257 261 251 242 241 245 253 254 252 245 239 234 232 231 229 226 228 232 236
189 187 188 234 125 234 238 177 213 215 231 220 250 258 254 250 265 271 303 301 291 286 284 283 283 282 279 268 258 256 253 253 252 248 241 235 231 229 227 224 223 225 229 234
213 219 248 225 234 246 302 212 152 164 214 17 342 346 348 333 306 278 357 345 340 336 313 300 293 287 286 279 272 264 258 248 244 242 239 233 228 225 222 220 221 224 227 230
209 220 231 247 251 248 245 333 350 287 217 18 11 7 351 333 266 66 341 342 340 339 342 328 315 310 297 289 276 267 260 244 237 242 238 232 227 223 220 219 220 223 226 230
190 221 232 235 248 251 336 316 297 186 48 20 15 13 12 12 336 319 345 347 345 344 345 337 325 323 319 310 290 265 256 240 241 247 237 226 222 220 217 218 219 221 225 229
263 291 232 232 227 240 346 18 38 45 92 28 358 354 349 339 330 336 347 352 353 352 348 349 349 344 341 329 307 283 258 247 244 245 228 218 216 214 213 215 217 221 225 229
257 309 4 45 324 55 41 102 100 80 111 57 348 332 329 327 328 330 334 342 346 350 350 347 351 353 355 349 331 302 273 255 248 236 222 216 214 213 213 216 219 223 226 230
283 127 112 352 119 148 135 122 100 7 329 319 321 318 321 315 320 320 326 330 331 335 342 348 350 348 345 349 352 328 292 273 254 228 221 216 215 216 217 221 225 229 232 233
191 136 217 218 145 99 91 106 343 325 310 302 312 326 324 317 316 319 322 322 321 327 331 338 341 340 336 332 339 343 325 284 255 249 239 228 222 222 223 226 231 235 239 242
29 184 175 230 26 344 95 320 309 321 322 328 327 321 316 318 315 314 314 315 317 318 323 324 324 327 331 328 324 334 325 305 268 250 251 241 234 232 231 232 236 240 243 243